Regional Weather Roundup
Issued by NWS

Home | Current Version | Previous Version | Graphics & Text | Print | Product List | Glossary On
Versions: 1 2 3 4 5 6 7 8 9 10 11 12 13 14 15 16 17 18 19 20 21 22 23 24 25 26 27 28 29 30 31 32 33 34 35 36 37 38 39 40 41 42 43 44 45 46 47 48 49 50
000
ASUS43 KLMK 210810
RWRKY
KENTUCKY REGIONAL WEATHER ROUNDUP
NATIONAL WEATHER SERVICE LOUISVILLE KY
300 AM EST SUN JAN 21 2018

NOTE "FAIR" INDICATES FEW OR NO CLOUDS BELOW 12,000 FEET
WITH NO SIGNIFICANT WEATHER AND/OR OBSTRUCTIONS TO VISIBILITY.

KYZ001>023-026-027-061>063-070>075-210900-
WESTERN AND SOUTH CENTRAL KENTUCKY

CITY           SKY/WX    TMP DP  RH WIND       PRES   REMARKS
PADUCAH        MOCLDY    52  42  69 SW7       30.06R
HENDERSON      MOCLDY    46  40  79 S8        30.06S
OWENSBORO      FAIR      44  40  85 S8        30.08S
HOPKINSVILLE   MOCLDY    53  38  57 S7        30.10S
BOWLING GREEN  CLOUDY    52  39  61 S9        30.13S
GLASGOW        CLOUDY    52  37  56 S7        30.14S
$$

KYZ024-025-028>034-038-045-046-053-210900-
NORTH CENTRAL KENTUCKY

CITY           SKY/WX    TMP DP  RH WIND       PRES   REMARKS
LOUISVILLE/SDF MOCLDY    54  41  61 S10       30.09F
LOUISVILLE/LOU CLOUDY    50  42  74 S7        30.11S
FORT KNOX      CLOUDY    49  41  73 S14       30.08F
$$

KYZ035>037-039>044-047>052-055>060-089>105-210900-
NORTHEAST KENTUCKY

CITY           SKY/WX    TMP DP  RH WIND       PRES   REMARKS
LEXINGTON      CLOUDY    50  38  63 S9        30.13F
COVINGTON      CLOUDY    48  42  80 S8        30.09S
FRANKFORT      CLOUDY    51  37  58 S9        30.11S
$$

KYZ054-064>069-076>088-106>120-210900-
SOUTHEAST KENTUCKY

CITY           SKY/WX    TMP DP  RH WIND       PRES   REMARKS
JACKSON        CLOUDY    48  35  60 SW3       30.17R
LONDON         CLOUDY    43  36  76 W3        30.18S
SOMERSET       CLOUDY    43  34  70 W6        30.20R
MIDDLESBORO    CLOUDY    37  34  91 CALM      30.21S
MONTICELLO     CLOUDY    44  39  82 N8        30.19F
$$





USA.gov is the U.S. government's official web portal to all federal, state and local government web resources and services.